Ashland, WI

8:42 AM CDT on July 20, 2017 (GMT -0500)
Kennedy Memorial

Weather History for KASX - April, 2014

Change the Weather History Date:

Tuesday, April 29, 2014

  Actual Average Record
Temperature  
Mean Temperature 34 °F -  
Max Temperature 37 °F 58 °F 85 °F (1965)
Min Temperature 30 °F 32 °F 16 °F (1958)
Degree Days  
Heating Degree Days 32    
Moisture  
Dew Point 30 °F    
Average Humidity 92    
Maximum Humidity 100    
Minimum Humidity 67    
Precipitation  
Precipitation 0.55 in - - ()
Sea Level Pressure  
Sea Level Pressure 29.82 in    
Wind  
Wind Speed 21 mph (NE)    
Max Wind Speed 28 mph    
Max Gust Speed 38 mph    
Visibility 3 miles    
Events Fog , Snow    
Averages and records for this station are not official NWS values.
T = Trace of Precipitation, MM = Missing Value Source: NWS Daily Summary

Daily Weather History Graph

Daily Weather History Graph

Search for Another Location

Airport or City:

Trip Planner

Search our weather history database for the weather conditions in past years. The results will help you decide how hot, cold, wet, or windy it might be!

Date:

Astronomy

Apr. 29, 2014 Rise Set
Actual Time 5:52 AM CDT 8:10 PM CDT
Civil Twilight 5:19 AM CDT 8:43 PM CDT
Nautical Twilight 4:37 AM CDT 9:25 PM CDT
Astronomical Twilight 3:51 AM CDT 10:12 PM CDT
Moon 6:11 AM CDT (4/29) 8:51 PM CDT (4/29)
Length of Visible Light 15h 24m
Length of Day
14h 18m
New Moon, 0% of the Moon is Illuminated
Apr 29
New Moon
May 6
First Quarter
May 14
Full
May 21
Last Quarter
May 28
New

Hourly Weather History & Observations

Time (CDT) Temp. Windchill Dew Point Humidity Pressure Visibility Wind Dir Wind Speed Gust Speed Precip Events Conditions
12:53 AM 37.0 °F 26.4 °F 27.0 °F 67% 29.92 in 10.0 mi NE 20.7 mph 28.8 mph N/A   Overcast
1:53 AM 36.0 °F 26.0 °F 28.0 °F 73% 29.91 in 10.0 mi NE 17.3 mph - N/A   Overcast
2:53 AM 35.1 °F 25.2 °F 28.0 °F 76% 29.90 in 10.0 mi NE 16.1 mph 23.0 mph N/A   Overcast
3:53 AM 35.1 °F 24.1 °F 28.0 °F 76% 29.89 in 10.0 mi NE 19.6 mph - N/A   Overcast
4:53 AM 35.1 °F 23.0 °F 28.0 °F 76% 29.86 in 10.0 mi NE 24.2 mph 31.1 mph N/A   Overcast
5:53 AM 34.0 °F 21.5 °F 28.0 °F 79% 29.85 in 10.0 mi ENE 24.2 mph 28.8 mph N/A   Overcast
6:53 AM 34.0 °F 21.3 °F 28.0 °F 79% 29.85 in 10.0 mi NE 25.3 mph 33.4 mph N/A   Mostly Cloudy
8:53 AM 34.0 °F 21.5 °F 28.9 °F 82% 29.86 in 10.0 mi NE 24.2 mph 33.4 mph N/A   Overcast
9:46 AM 33.1 °F 19.6 °F 28.9 °F 85% 29.82 in 1.8 mi NE 27.6 mph 36.8 mph 0.00 in Snow Light Snow
9:53 AM 33.1 °F 20.3 °F 30.0 °F 89% 29.84 in 1.5 mi NE 24.2 mph 36.8 mph 0.00 in Snow Light Snow
9:58 AM 33.1 °F 20.6 °F 30.0 °F 89% 29.81 in 3.0 mi NE 23.0 mph 34.5 mph 0.00 in Snow Light Snow
10:53 AM 33.1 °F 19.6 °F 30.0 °F 89% 29.85 in 9.0 mi NE 27.6 mph 36.8 mph 0.00 in Snow Light Snow
11:08 AM 33.1 °F 20.6 °F 30.0 °F 89% 29.82 in 1.8 mi NE 23.0 mph 35.7 mph 0.00 in Snow Light Snow
11:20 AM 33.1 °F 20.6 °F 30.0 °F 89% 29.82 in 2.0 mi NE 23.0 mph 36.8 mph 0.00 in Snow Light Snow
11:27 AM 33.1 °F 20.3 °F 30.0 °F 89% 29.81 in 1.2 mi NE 24.2 mph 36.8 mph 0.00 in Snow Light Snow
11:42 AM 32.0 °F 18.6 °F 30.0 °F 92% 29.81 in 0.5 mi NE 25.3 mph 38.0 mph 0.01 in Fog , Snow Snow
11:53 AM 32.0 °F 18.6 °F 30.0 °F 92% 29.85 in 0.5 mi NE 25.3 mph 35.7 mph 0.03 in Fog , Snow Snow
12:02 PM 30.9 °F 16.9 °F 30.0 °F 96% 29.81 in 0.2 mi NE 26.5 mph 35.7 mph 0.01 in Fog , Snow Heavy Snow
12:09 PM 30.9 °F 17.8 °F 30.9 °F 100% 29.81 in 0.2 mi NE 23.0 mph 35.7 mph 0.02 in Fog , Snow Snow
12:53 PM 30.9 °F 17.2 °F 30.9 °F 100% 29.83 in 0.2 mi NE 25.3 mph 33.4 mph 0.10 in Fog , Snow Snow
1:29 PM 30.9 °F 17.5 °F 30.9 °F 100% 29.79 in 0.2 mi NE 24.2 mph 36.8 mph 0.06 in Fog , Snow Heavy Snow
1:53 PM 30.9 °F 17.2 °F 30.9 °F 100% 29.82 in 0.5 mi NE 25.3 mph 31.1 mph 0.11 in Fog , Snow Snow
2:10 PM 30.9 °F 17.8 °F 30.9 °F 100% 29.78 in 0.2 mi NE 23.0 mph 31.1 mph 0.02 in Fog , Snow Snow
2:31 PM 32.0 °F 19.8 °F 30.9 °F 96% 29.78 in 0.5 mi NE 20.7 mph 28.8 mph 0.05 in Fog , Snow Snow
2:53 PM 32.0 °F 20.1 °F 30.9 °F 96% 29.82 in 0.2 mi NE 19.6 mph 31.1 mph 0.08 in Fog , Snow Snow
3:16 PM 32.0 °F 19.5 °F 30.9 °F 96% 29.79 in 0.2 mi NE 21.9 mph - 0.05 in Fog , Snow Snow
3:29 PM 32.0 °F 20.1 °F 30.9 °F 96% 29.79 in 0.5 mi NE 19.6 mph 29.9 mph 0.07 in Fog , Snow Snow
3:53 PM 32.0 °F 19.5 °F 30.9 °F 96% 29.82 in 0.2 mi NE 21.9 mph 28.8 mph 0.11 in Fog , Snow Snow
4:33 PM 32.0 °F 19.8 °F 30.9 °F 96% 29.79 in 0.5 mi NE 20.7 mph 31.1 mph 0.06 in Fog , Snow Snow
4:53 PM 32.0 °F 19.5 °F 30.9 °F 96% 29.82 in 0.5 mi NE 21.9 mph 31.1 mph 0.09 in Fog , Snow Snow
5:14 PM 32.0 °F 19.8 °F 32.0 °F 100% 29.79 in 1.2 mi NE 20.7 mph 28.8 mph 0.01 in Snow Light Snow
5:29 PM 32.0 °F 19.5 °F 30.9 °F 96% 29.80 in 3.0 mi NE 21.9 mph 28.8 mph 0.01 in Snow Light Snow
5:53 PM 32.0 °F 19.2 °F 30.9 °F 96% 29.83 in 2.0 mi NE 23.0 mph 31.1 mph 0.02 in Snow Light Snow
6:29 PM 32.0 °F 19.8 °F 30.9 °F 96% 29.80 in 5.0 mi NE 20.7 mph 31.1 mph 0.00 in   Overcast
6:53 PM 32.0 °F 20.5 °F 30.9 °F 96% 29.83 in 10.0 mi NE 18.4 mph 28.8 mph 0.00 in   Overcast
7:53 PM 32.0 °F 20.1 °F 32.0 °F 100% 29.84 in 6.0 mi NE 19.6 mph 26.5 mph N/A   Overcast
8:53 PM 32.0 °F 22.1 °F 32.0 °F 100% 29.83 in 2.0 mi NNE 13.8 mph - 0.01 in Snow Light Snow
9:03 PM 32.0 °F 22.1 °F 32.0 °F 100% 29.80 in 1.5 mi NNE 13.8 mph - 0.00 in   Overcast
9:20 PM 32.0 °F 23.6 °F 32.0 °F 100% 29.79 in 2.5 mi NNE 10.4 mph - 0.00 in   Overcast
9:45 PM 33.1 °F 24.4 °F 33.1 °F 100% 29.79 in 0.8 mi NE 11.5 mph - 0.00 in   Mist
9:53 PM 32.0 °F 23.0 °F 32.0 °F 100% 29.82 in 0.5 mi NNE 11.5 mph - 0.00 in Fog Fog
10:39 PM 33.1 °F 23.4 °F 33.1 °F 100% 29.77 in 0.2 mi NNE 13.8 mph - N/A Fog Fog
10:53 PM 33.1 °F 23.4 °F 33.1 °F 100% 29.80 in 0.2 mi NNE 13.8 mph - N/A Fog Fog
11:53 PM 33.1 °F 24.4 °F 33.1 °F 100% 29.78 in 0.2 mi NNE 11.5 mph - N/A Fog Fog